Weather History for KINW - September, 2013

Change the Weather History Date:

Wednesday, September 25, 2013

  Actual Average Record
Temperature  
Mean Temperature 66 °F 65 °F  
Max Temperature 83 °F 82 °F 93 °F (1982)
Min Temperature 48 °F 48 °F 36 °F (2000)
Degree Days  
Heating Degree Days 0 2  
Month to date heating degree days 6 15  
Since 1 July heating degree days 6 15  
Cooling Degree Days 1 2  
Month to date cooling degree days 154 135  
Year to date cooling degree days 1379 1193  
Growing Degree Days 15 (Base 50)    
Moisture  
Dew Point 32 °F    
Average Humidity 37    
Maximum Humidity 61    
Minimum Humidity 13    
Precipitation  
Precipitation 0.00 in 0.03 in 1.05 in (1944)
Month to date precipitation 0.93 0.77  
Year to date precipitation 6.63 5.30  
Sea Level Pressure  
Sea Level Pressure 29.69 in    
Wind  
Wind Speed 13 mph (South)    
Max Wind Speed 30 mph    
Max Gust Speed 41 mph    
Visibility 10 miles    
Events      
T = Trace of Precipitation, MM = Missing Value Source: NWS Daily Summary

Daily Weather History Graph

Daily Weather History Graph

Search for Another Location

Airport or City:

Trip Planner

Search our weather history database for the weather conditions in past years. The results will help you decide how hot, cold, wet, or windy it might be!

Date:

Astronomy

Sep. 25, 2013 Rise Set
Actual Time 6:13 AM MST 6:14 PM MST
Civil Twilight 5:48 AM MST 6:40 PM MST
Nautical Twilight 5:18 AM MST 7:09 PM MST
Astronomical Twilight 4:48 AM MST 7:39 PM MST
Moon 10:36 PM MST (9/25) 12:09 PM MST (9/25)
Length of Visible Light 12h 52m
Length of Day
12h 01m
Waning Gibbous, 63% of the Moon is Illuminated
Sep 25
Waning Gibbous
Sep 26
Last Quarter
Oct 4
New
Oct 11
First Quarter
Oct 18
Full

Hourly Weather History & Observations

Time (MST) Temp. Dew Point Humidity Pressure Visibility Wind Dir Wind Speed Gust Speed Precip Events Conditions
12:56 AM 54.0 °F 37.0 °F 53% 29.81 in 10.0 mi ESE 9.2 mph - N/A   Clear
1:56 AM 53.1 °F 36.0 °F 52% 29.79 in 10.0 mi Calm Calm - N/A   Clear
2:56 AM 48.9 °F 36.0 °F 61% 29.80 in 10.0 mi South 4.6 mph - N/A   Clear
3:56 AM 51.1 °F 36.0 °F 56% 29.79 in 10.0 mi SE 5.8 mph - N/A   Clear
4:56 AM 51.1 °F 36.0 °F 56% 29.77 in 10.0 mi SE 8.1 mph - N/A   Clear
5:56 AM 50.0 °F 35.1 °F 57% 29.78 in 10.0 mi SSE 4.6 mph - N/A   Clear
6:56 AM 50.0 °F 35.1 °F 57% 29.80 in 10.0 mi ESE 3.5 mph - N/A   Clear
7:56 AM 57.0 °F 36.0 °F 45% 29.79 in 10.0 mi ESE 5.8 mph - N/A   Clear
8:56 AM 68.0 °F 36.0 °F 31% 29.77 in 10.0 mi SE 11.5 mph - N/A   Clear
9:56 AM 78.1 °F 33.1 °F 19% 29.72 in 10.0 mi SSW 19.6 mph 27.6 mph N/A   Clear
10:56 AM 81.0 °F 37.0 °F 21% 29.70 in 10.0 mi SSW 21.9 mph 32.2 mph N/A   Clear
11:56 AM 82.0 °F 34.0 °F 18% 29.68 in 10.0 mi South 26.5 mph - N/A   Clear
12:56 PM 82.0 °F 28.0 °F 14% 29.65 in 10.0 mi SSW 26.5 mph 33.4 mph N/A   Clear
1:56 PM 82.0 °F 27.0 °F 13% 29.63 in 10.0 mi SSW 24.2 mph 33.4 mph N/A   Clear
2:56 PM 82.0 °F 27.0 °F 13% 29.62 in 10.0 mi SSW 24.2 mph 34.5 mph N/A   Clear
3:56 PM 81.0 °F 30.0 °F 16% 29.60 in 10.0 mi South 23.0 mph 32.2 mph N/A   Clear
4:56 PM 79.0 °F 28.9 °F 16% 29.61 in 10.0 mi South 23.0 mph 32.2 mph N/A   Clear
5:56 PM 73.9 °F 28.9 °F 19% 29.63 in 10.0 mi South 17.3 mph 27.6 mph N/A   Clear
6:56 PM 70.0 °F 28.0 °F 21% 29.65 in 10.0 mi SSW 13.8 mph 20.7 mph N/A   Clear
7:56 PM 62.1 °F 27.0 °F 26% 29.67 in 10.0 mi SSW 5.8 mph - N/A   Clear
8:56 PM 61.0 °F 28.0 °F 29% 29.64 in 10.0 mi SE 3.5 mph - N/A   Clear
9:56 PM 55.9 °F 28.9 °F 36% 29.63 in 10.0 mi SSW 5.8 mph - N/A   Clear
10:56 PM 64.0 °F 28.0 °F 26% 29.60 in 10.0 mi South 11.5 mph - N/A   Clear
11:56 PM 60.1 °F 30.0 °F 32% 29.62 in 10.0 mi South 11.5 mph - N/A   Clear